Location: Sungai Igah
(2.7333°N, 114.2500°E)
Time: 18:47:51
(UTC+00:00)

Cosmos 2219 - Pass Details

Date: 14 June 2021
Orbit: 832 x 861 km, 71.1° (Epoch: 25 July)

Event Time Altitude Azimuth Distance (km) Brightness Sun altitude
Rises 12:53:59 0° 340° (NNW) 3,423 7.0 -32.8°
Reaches altitude 10° 12:56:26 10° 338° (NNW) 2,487 6.2 -33.3°
Enters shadow 13:00:24 45° 324° (NW) 1,149 4.1 -34.2°
